[[{"header":{"parameterUnit":"m.s-1","parameterCategory":1,"la1":30.2991,"la2":30.254,"lo1":-89.0895,"lo2":-89.0444,"dy":0.0017,"dx":0.0017,"nx":28,"ny":28,"refTime":"2023-10-08T21:00:00:Z","depth":0,"parameterNumber":2,"parameterNumberName":"U-component_of_WINDS"},"data":[0,0,0,0,0,0,0,0,0,0,0,0,0,0,0,0,0,0,0,0,0,0,0,0,0,0,0,0,0,0,0,0,0,0,0,0,0,0,0,0,0,0,0,0,0,0,0,0,0,0,0,0,0,0,0,0,0,0,-1.8963,-1.8964,0,-1.9056,-1.9057,-1.9059,-1.9078,-1.9077,-1.9076,-1.9076,-1.9168,-1.9171,-1.9174,0,0,0,0,0,0,0,0,0,0,0,0,0,-1.8797,-1.88,-1.8963,-1.8964,-1.8965,-1.9056,-1.9058,-1.9059,-1.9078,-1.9077,-1.9076,-1.9075,-1.9167,-1.917,-1.9174,0,0,0,0,0,0,0,0,0,0,0,0,0,-1.8877,-1.8801,-1.8963,-1.8986,-1.8989,-1.9056,-1.9058,-1.9059,-1.9078,-1.9077,-1.9076,-1.9075,-1.9166,-1.917,-1.9175,-1.9224,0,0,-1.9189,-1.9191,0,0,0,0,0,0,0,0,-1.8873,-1.8883,-1.8981,-1.8984,-1.8988,-1.9054,-1.9033,-1.9114,-1.9078,-1.9044,-1.9076,-1.9074,-1.9131,-1.9138,-1.9158,-1.9229,-1.9233,-1.9189,-1.9192,-1.9194,-1.9195,0,0,0,0,0,0,0,-1.8867,-1.8879,-1.9,-1.8983,-1.8987,-1.899,-1.9,-1.9048,-1.9092,-1.9047,-1.9049,-1.906,-1.9132,-1.9153,-1.916,-1.9234,-1.9189,-1.9193,-1.9196,-1.9198,-1.9348,-1.9349,0,0,0,0,0,0,-1.8858,-1.8875,-1.8997,-1.9003,-1.8927,-1.8994,-1.9005,-1.9034,-1.9092,-1.9099,-1.906,-1.906,-1.9146,-1.9155,-1.9163,-1.9224,-1.9194,-1.9198,-1.9201,-1.9347,-1.9348,-1.9349,0,0,0,0,0,0,-1.8854,-1.8869,-1.8993,-1.8939,-1.8955,-1.8998,-1.903,-1.9036,-1.9058,-1.9102,-1.9109,-1.9074,-1.9145,-1.9157,-1.9209,-1.9227,-1.92,-1.9205,-1.9345,-1.9347,-1.9349,-1.9346,0,0,0,0,0,0,-1.885,-1.8867,-1.8888,-1.894,-1.8958,-1.9038,-1.9031,-1.9039,-1.9066,-1.9066,-1.9117,-1.9124,-1.9145,-1.9202,-1.9213,-1.9233,-1.9208,-1.9344,-1.9346,-1.9348,-1.9344,-1.9347,-1.935,0,0,0,0,0,-1.8844,-1.8883,-1.8889,-1.8903,-1.8985,-1.9039,-1.905,-1.9075,-1.9067,-1.9087,-1.9115,-1.9122,-1.9224,-1.9207,-1.922,-1.9242,-1.9343,-1.9345,-1.9348,-1.9343,-1.9347,-1.935,0,0,0,0,0,0,-1.8831,-1.889,-1.8897,-1.8955,-1.8992,-1.9042,-1.9068,-1.9078,-1.9117,-1.9116,-1.9144,-1.9155,-1.9205,-1.9229,-1.9209,-1.9292,-1.9282,-1.9288,-1.9274,-1.9278,-1.9281,-1.9273,-1.9212,0,0,0,0,0,-1.8835,-1.8876,-1.8925,-1.8971,-1.8989,-1.9026,-1.905,-1.9066,-1.9106,-1.9121,-1.9153,-1.919,-1.923,-1.9255,-1.9295,-1.9348,-1.9358,-1.9369,-1.9372,-1.9374,-1.9378,-1.9406,-1.9411,-1.9358,-1.9358,-1.9358,0,0,-1.8844,-1.8881,-1.8905,-1.8969,-1.9,-1.904,-1.9039,-1.9081,-1.9111,-1.9127,-1.9178,-1.9203,-1.9245,-1.9298,-1.9322,-1.9319,-1.9395,-1.9377,-1.9379,-1.9381,-1.9409,-1.9414,-1.9418,-1.936,-1.936,-1.9359,0,0,-1.888,-1.8913,-1.8954,-1.8985,-1.9032,-1.9055,-1.9065,-1.9114,-1.9131,-1.9183,-1.9196,-1.923,-1.9299,-1.9329,-1.9352,-1.9398,-1.9405,-1.941,-1.9423,-1.945,-1.9455,-1.9458,-1.9473,-1.9478,-1.9414,-1.9414,-1.9414,0,-1.8884,-1.8946,-1.8974,-1.9016,-1.9042,-1.906,-1.9101,-1.9129,-1.9186,-1.9203,-1.9199,-1.9285,-1.9315,-1.9373,-1.9384,-1.9404,-1.9414,-1.9404,-1.9452,-1.9456,-1.946,-1.9474,-1.948,-1.9414,-1.9414,-1.9414,-1.9414,0,-1.8948,-1.8991,-1.9018,-1.9073,-1.9103,-1.9144,-1.9176,-1.9203,-1.9217,-1.924,-1.9291,-1.9328,-1.9374,-1.939,-1.9403,-1.945,-1.9446,-1.9447,-1.9438,-1.9465,-1.9478,-1.9484,-1.9415,-1.9415,-1.9414,-1.9414,0,0,-1.8979,-1.9048,-1.9057,-1.9082,-1.9134,-1.9167,-1.9208,-1.9254,-1.9276,-1.9314,-1.9348,-1.9405,-1.9406,-1.9433,-1.9449,-1.9473,-1.9505,-1.9471,-1.9472,-1.9474,-1.9556,-1.9554,-1.956,-1.951,-1.9511,-1.9512,-1.9552,0,-1.902,-1.9095,-1.912,-1.9181,-1.922,-1.9237,-1.9272,-1.9307,-1.933,-1.9365,-1.939,-1.9429,-1.9428,-1.9444,-1.9469,-1.9496,-1.9521,-1.9493,-1.954,-1.9541,-1.9527,-1.9568,-1.9566,-1.9602,-1.9558,-1.9559,-1.9559,0,-1.9077,-1.9117,-1.9182,-1.9229,-1.9246,-1.9277,-1.9321,-1.9354,-1.9394,-1.9409,-1.9438,-1.9453,-1.9494,-1.9484,-1.9541,-1.9521,-1.9542,-1.9557,-1.9559,-1.9564,-1.9551,-1.9571,-1.9614,-1.9619,-1.9568,-1.9568,-1.9567,0,-1.9091,-1.916,-1.9208,-1.9229,-1.9284,-1.9306,-1.933,-1.9368,-1.9394,-1.9431,-1.9448,-1.949,-1.9512,-1.9543,-1.9568,-1.9558,-1.9621,-1.9614,-1.9633,-1.9633,-1.9645,-1.9644,-1.969,-1.9661,-1.9661,-1.966,-1.966,0,-1.9133,-1.9172,-1.9215,-1.9244,-1.9287,-1.9315,-1.9357,-1.9382,-1.9416,-1.9449,-1.9466,-1.9496,-1.9528,-1.9562,-1.9581,-1.9624,-1.9634,-1.9646,-1.9651,-1.9644,-1.9642,-1.9657,-1.9654,-1.9662,-1.9662,-1.9661,-1.9661,0,-1.9155,-1.9185,-1.9238,-1.9287,-1.9299,-1.9329,-1.937,-1.9398,-1.9421,-1.9463,-1.9474,-1.9511,-1.9551,-1.9579,-1.9632,-1.9645,-1.969,-1.9695,-1.9677,-1.9679,-1.9697,-1.9694,-1.9753,-1.9762,-1.9728,-1.9728,-1.9728,0,-1.9179,-1.9209,-1.9261,-1.9284,-1.9309,-1.9347,-1.9373,-1.9401,-1.9428,-1.9474,-1.9496,-1.9538,-1.9573,-1.9637,-1.9667,-1.9707,-1.9712,-1.973,-1.9718,-1.971,-1.971,-1.9708,-1.971,-1.9731,-1.9732,-1.9732,-1.9732,0,-1.9218,-1.9231,-1.9269,-1.9312,-1.9343,-1.9378,-1.9413,-1.9431,-1.9465,-1.9493,-1.9536,-1.9563,-1.9616,-1.9657,-1.9699,-1.9722,-1.9732,-1.9736,-1.9742,-1.9735,-1.9722,-1.9728,-1.9681,-1.9734,-1.9734,-1.9734,-1.9733,-1.9733,-1.9241,-1.9268,-1.9308,-1.9349,-1.9378,-1.941,-1.9438,-1.9466,-1.9502,-1.9548,-1.9562,-1.9605,-1.9642,-1.97,-1.9724,-1.9757,-1.9756,-1.9765,-1.9768,-1.9769,-1.9768,-1.9718,-1.9765,-1.9765,-1.9765,-1.9765,-1.9765,0,-1.9279,-1.9306,-1.9343,-1.9392,-1.9423,-1.9431,-1.947,-1.9495,-1.9534,-1.9568,-1.9602,-1.965,-1.9689,-1.9723,-1.9763,-1.9783,-1.9788,-1.9793,-1.9791,-1.9795,-1.9768,-1.9758,-1.9787,-1.9787,-1.9787,-1.9787,-1.9787,-1.9787,-1.9303,-1.9348,-1.9366,-1.9426,-1.9452,-1.9496,-1.9517,-1.9545,-1.9573,-1.9625,-1.9659,-1.9681,-1.9714,-1.9757,-1.9793,-1.9801,-1.9815,-1.9817,-1.9827,-1.98,-1.9797,-1.9795,-1.9785,-1.982,-1.982,-1.9851,-1.9851,-1.9852]},{"header":{"parameterUnit":"m.s-1","parameterCategory":1,"la1":30.2991,"la2":30.254,"lo1":-89.0895,"lo2":-89.0444,"dy":0.0017,"dx":0.0017,"nx":28,"ny":28,"refTime":"2023-10-08T21:00:00:Z","depth":0,"parameterNumber":3,"parameterNumberName":"V-component_of_WINDS"},"data":[0,0,0,0,0,0,0,0,0,0,0,0,0,0,0,0,0,0,0,0,0,0,0,0,0,0,0,0,0,0,0,0,0,0,0,0,0,0,0,0,0,0,0,0,0,0,0,0,0,0,0,0,0,0,0,0,0,0,-1.7473,-1.7473,0,-1.752,-1.752,-1.7521,-1.7498,-1.7497,-1.7496,-1.7495,-1.7546,-1.7548,-1.7551,0,0,0,0,0,0,0,0,0,0,0,0,0,-1.7365,-1.7367,-1.7473,-1.7473,-1.7474,-1.752,-1.752,-1.7521,-1.7499,-1.7497,-1.7496,-1.7494,-1.7545,-1.7548,-1.7551,0,0,0,0,0,0,0,0,0,0,0,0,0,-1.7412,-1.7367,-1.7472,-1.7468,-1.7468,-1.752,-1.752,-1.7521,-1.7499,-1.7497,-1.7495,-1.7494,-1.7544,-1.7548,-1.7551,-1.7611,0,0,-1.7563,-1.7564,0,0,0,0,0,0,0,0,-1.7409,-1.7416,-1.7468,-1.7468,-1.7469,-1.7501,-1.7501,-1.7551,-1.7499,-1.7487,-1.7495,-1.7493,-1.7533,-1.7537,-1.755,-1.7613,-1.7615,-1.7563,-1.7565,-1.7567,-1.7568,0,0,0,0,0,0,0,-1.7406,-1.7414,-1.7491,-1.7469,-1.7469,-1.7464,-1.7469,-1.751,-1.752,-1.7488,-1.7487,-1.7492,-1.7532,-1.7547,-1.7551,-1.7616,-1.7563,-1.7566,-1.7568,-1.757,-1.773,-1.7731,0,0,0,0,0,0,-1.7402,-1.7411,-1.749,-1.7493,-1.7434,-1.7468,-1.7473,-1.7493,-1.7519,-1.7521,-1.7494,-1.7491,-1.7541,-1.7547,-1.7553,-1.7624,-1.7567,-1.757,-1.7572,-1.7728,-1.773,-1.7732,0,0,0,0,0,0,-1.74,-1.741,-1.7488,-1.7451,-1.7461,-1.7471,-1.7494,-1.7495,-1.7509,-1.7523,-1.7525,-1.7507,-1.754,-1.7548,-1.7596,-1.7625,-1.7572,-1.7575,-1.7725,-1.7728,-1.7731,-1.7766,0,0,0,0,0,0,-1.7397,-1.7409,-1.7431,-1.7452,-1.7463,-1.753,-1.7496,-1.7497,-1.7515,-1.7512,-1.7536,-1.7538,-1.7539,-1.7591,-1.76,-1.7629,-1.7578,-1.7723,-1.7727,-1.773,-1.7763,-1.777,-1.7777,0,0,0,0,0,-1.7393,-1.744,-1.7433,-1.7442,-1.7491,-1.7532,-1.7538,-1.7538,-1.7517,-1.754,-1.7549,-1.7537,-1.762,-1.7596,-1.7606,-1.7637,-1.7721,-1.7725,-1.773,-1.776,-1.7769,-1.7777,0,0,0,0,0,0,-1.7424,-1.7443,-1.7435,-1.7489,-1.7509,-1.7528,-1.7557,-1.7547,-1.7574,-1.757,-1.7569,-1.7575,-1.7625,-1.7636,-1.7608,-1.7696,-1.7668,-1.7674,-1.7687,-1.7696,-1.7703,-1.7699,-1.7581,0,0,0,0,0,-1.7436,-1.7467,-1.7482,-1.7529,-1.7539,-1.7546,-1.7564,-1.7562,-1.7583,-1.7591,-1.7604,-1.7625,-1.7656,-1.7676,-1.7706,-1.7764,-1.7769,-1.779,-1.7797,-1.7803,-1.7809,-1.7841,-1.785,-1.7747,-1.7747,-1.7747,0,0,-1.7464,-1.7478,-1.7498,-1.7536,-1.7551,-1.7583,-1.7554,-1.7589,-1.7613,-1.7597,-1.7643,-1.7653,-1.7677,-1.773,-1.7755,-1.7741,-1.7839,-1.7809,-1.7813,-1.7816,-1.7846,-1.7856,-1.7865,-1.775,-1.7749,-1.7749,0,0,-1.753,-1.7543,-1.7584,-1.7599,-1.7621,-1.7626,-1.7635,-1.7655,-1.7661,-1.7708,-1.7695,-1.7725,-1.7778,-1.7795,-1.7811,-1.7882,-1.7872,-1.7892,-1.7929,-1.7959,-1.7968,-1.7975,-1.8001,-1.801,-1.7898,-1.7898,-1.7898,0,-1.7561,-1.7608,-1.7606,-1.7642,-1.7659,-1.7644,-1.7685,-1.77,-1.7732,-1.7744,-1.7728,-1.7794,-1.7809,-1.7867,-1.7884,-1.7897,-1.7908,-1.7889,-1.7966,-1.7974,-1.798,-1.8005,-1.8015,-1.79,-1.79,-1.79,-1.7899,0,-1.7645,-1.7679,-1.7709,-1.7738,-1.7759,-1.7797,-1.7801,-1.7822,-1.7818,-1.7824,-1.7871,-1.7888,-1.792,-1.7934,-1.7931,-1.7991,-1.7981,-1.7966,-1.7938,-1.7993,-1.8016,-1.8025,-1.7903,-1.7902,-1.7902,-1.7901,0,0,-1.7733,-1.7759,-1.777,-1.7783,-1.7807,-1.7833,-1.7871,-1.7901,-1.7919,-1.7941,-1.7973,-1.8018,-1.8004,-1.8022,-1.802,-1.8047,-1.8103,-1.8028,-1.8029,-1.8042,-1.817,-1.8182,-1.8193,-1.8096,-1.8098,-1.8099,-1.8168,0,-1.78,-1.7865,-1.7864,-1.7925,-1.7955,-1.7941,-1.7974,-1.7993,-1.7999,-1.8027,-1.8034,-1.8066,-1.8044,-1.8055,-1.8081,-1.809,-1.8129,-1.8085,-1.8126,-1.8128,-1.8121,-1.8205,-1.8217,-1.8282,-1.8177,-1.8179,-1.818,0,-1.7888,-1.7912,-1.7975,-1.7994,-1.8007,-1.8036,-1.8064,-1.809,-1.811,-1.8113,-1.8133,-1.8127,-1.8166,-1.8136,-1.819,-1.816,-1.8177,-1.8184,-1.8187,-1.8191,-1.8157,-1.8211,-1.8302,-1.8312,-1.8194,-1.8193,-1.8192,0,-1.7945,-1.7993,-1.8037,-1.8049,-1.8071,-1.8092,-1.8103,-1.8121,-1.814,-1.8164,-1.8176,-1.8205,-1.8221,-1.8244,-1.8246,-1.8224,-1.8301,-1.8271,-1.8305,-1.8305,-1.8322,-1.8321,-1.8417,-1.8332,-1.8332,-1.8332,-1.8331,0,-1.8021,-1.8061,-1.8063,-1.809,-1.8134,-1.8132,-1.8176,-1.8184,-1.8201,-1.823,-1.822,-1.8248,-1.8249,-1.8277,-1.828,-1.8324,-1.8331,-1.8335,-1.8335,-1.8336,-1.8336,-1.8347,-1.8343,-1.8334,-1.8334,-1.8333,-1.8333,0,-1.8092,-1.8095,-1.8143,-1.816,-1.8165,-1.8197,-1.8211,-1.8238,-1.8243,-1.828,-1.8288,-1.8297,-1.833,-1.8334,-1.8373,-1.8374,-1.8428,-1.8423,-1.8421,-1.842,-1.8454,-1.8451,-1.8561,-1.8576,-1.8481,-1.8482,-1.8482,0,-1.8141,-1.8171,-1.819,-1.8208,-1.822,-1.825,-1.8268,-1.8267,-1.8286,-1.8312,-1.8335,-1.8367,-1.8392,-1.8446,-1.8456,-1.8486,-1.8482,-1.8518,-1.8486,-1.8486,-1.8483,-1.8481,-1.8484,-1.8525,-1.8526,-1.8527,-1.8527,0,-1.8226,-1.8226,-1.8252,-1.8279,-1.8301,-1.8322,-1.8342,-1.8358,-1.8359,-1.8382,-1.8415,-1.8435,-1.8474,-1.8506,-1.8535,-1.8546,-1.8538,-1.8537,-1.8547,-1.8548,-1.8546,-1.8548,-1.8438,-1.8535,-1.8534,-1.8534,-1.8533,-1.8533,-1.8288,-1.8313,-1.8331,-1.8361,-1.8375,-1.8394,-1.8419,-1.8427,-1.8454,-1.8485,-1.8483,-1.852,-1.8539,-1.8577,-1.8591,-1.862,-1.8608,-1.8622,-1.8625,-1.8629,-1.8632,-1.854,-1.8626,-1.8625,-1.8625,-1.8625,-1.8625,0,-1.8372,-1.8383,-1.841,-1.8438,-1.8461,-1.8449,-1.8471,-1.8491,-1.8523,-1.8542,-1.8566,-1.8604,-1.8635,-1.8647,-1.8678,-1.8699,-1.8695,-1.8707,-1.8705,-1.8708,-1.8641,-1.863,-1.8709,-1.8709,-1.8709,-1.8709,-1.8709,-1.8709,-1.8419,-1.8462,-1.8464,-1.8514,-1.8525,-1.856,-1.8573,-1.859,-1.8605,-1.8648,-1.8673,-1.868,-1.8696,-1.8727,-1.8755,-1.8758,-1.877,-1.8783,-1.8784,-1.8722,-1.8713,-1.8705,-1.8695,-1.8786,-1.8786,-1.8849,-1.885,-1.885]}]]